[Date Prev][Date Next][Thread Prev][Thread Next][Date Index][Thread Index]

[jamsat-news:1283] jas2info #191



========================   最新情報   ==============================

        Last updated :Thu.8-Jun.-2000  17:30 (JST) #191

====================================================================
   
  1)アマチュア通信衛星情報 FOシリーズの軌道要素、テレメトリ、
   QSOの状況等をまとめてみました.
   
   FO−29の6月8日(木)のテレメトリはJARLのホームページの
  運用予定のとうり11:17(JST)のパスではFMにて「This is
   JAS−2」の女性アナウンスと鶯の鳴き声が強い信号強度で聞こえました。
  これまで受信できたテレメトリも掲載しておきます.

 AS18780C1  6Jun2000
 11:26-11:41(JST)
 Freq.435.804-.786MHz

 HI HI A6 C7 90 DD 0D 43 10 0D 00 2E 5E 9D 82 43 95 93 B0 7F BD B8 BB BE B9 
 HI HI A6 C7 90 DD 12 43 10 1A 00 2E 93 80 7B 60 94 92 B0 7C BD B8 BB BE B9 
 HI HI A6 C7 90 DD 17 43 10 0D 00 2E 5E 89 7F 60 92 90 B0 7B BD B8 BB BE B9 
 HI HI A6 C7 90 DD 1D 43 FF 0D 00 2E 78 8B 7D 60 93 90 B0 83 BD B7 BB BE B9 
 HI HI A6 C7 90 DD 02 43 10 0D 00 2E 6B 65 7E 60 94 91 B0 75 BC B7 BB BE B9 
 HI HI A6 C7 90 DD 07 43 10 0D 00 2E 6A 9C 7C 60 92 91 A0 9F BC B7 BB BE B9 
 HI HI A6 C7 90 DD 0C 43 0A 0D 00 2E 80 47 80 60 93 91 B0 74 BC B7 BB BD B9 
 HI HI A6 C7 90 DD 12 43 10 0D 00 2E 47 94 78 60 94 93 B0 89 BC B7 BB BD B9 
 HI HI A6 C7 90 DD 17 43 10 0D 00 2E 93 53 88 60 93 90 B0 6E BC B7 BB BD B9 
 HI HI A6 07 90 DD 15 43 10 0D 00 2E 38 6B 85 60 92 90 B0 BD BC B7 BB BD B9 
 HI HI A6 C7 90 DD 12 43 10 0D 00 2E 8A 7A 76 4A 95 92 B0 9D BC B7 BB BD B9 
 HI HI A6 C7 90 DD 06 43 10 0D 00 2E 3F 7D 60 93 91 90 B0 83 BB B7 BA BD B9 
 HI HI A6 C7 90 DD 0C 43 10 0D 00 2E 6E 94 74 60 93 90 B0 65 BB B7 BA BD B8  
 HI HI A6 07 90 DD 11 43 10 0D 00 2E 5C 28 80 5F 92 90 B1 76 BB B7 BA BD B9 
 HI HI A6 C7 90 DD 17 43 10 0D 00 2E 47 94 77 60 93 90 B0 6D BB B7 BA BC B9 
 HI HI A6 C7 90 DD 1C 43 10 0D 00 2E 75 3A 8D 60 92 90 B0 77 BB B6 BA BD B9 
 HI HI A6 C7 90 DD 01 43 10 0D 00 2E 2F 73 7F 60 93 90 B1 87 BB B6 BA BC B9 
 HI HI A6 C7 90 DD 06 43 10 0D 00 2E 69 6B 7C 60 93 90 B0 AC BB B6 BA BC B9 
 HI HI A6 C7 90 DD 0C 43 10 0D 00 2E 32 4B 86 60 93 91 B0 7D BA B6 BA BC B9 
 HI HI A6 C7 90 DD 11 43 10 0D 00 2E 66 82 6E 60 93 92 B0 7E BA B6 BA BC B9 
 HI HI A6 C7 90 DD 16 43 10 0D 00 2E 50 68 56 60 93 91 B0 65 BA B6 BA BC B8 

  AS18767C1 5Jun2000
  12:21-12:35(JST)
  Freq.435.802-.788MHz

                                              60 94 91 B0 6E BC BA BD BD B9 
 HI HI A6 C7 90 DD 05 43 10 0D 00 2E 4C 9D 71 60 93 91 B0 70 BC B9 BC BD B8 
 HI HI A6 C7 90 DD 0A 43 10 0D 00 2E 7D 60 79 60 93 91 B0 7D BC B9 BC BD B8 
 HI HI A6 C7 90 DD J0 43 0A 0D 00 2E 6F 9F 84 60 94 91 B0 B2 BC B9 BC BD B9 
 HI HI A6 07 90 DD 15 43 10 0D 00 2E 53 65 85 43 94 92 B0 AB BC B9 BC BD B9 
 HI HI A6 C7 90 DD 1A 43 10 0D 00 2E 92 77 89 60 94 92 A1 65 BC B8 BC BD B9   
 HI HI A6 C7 90 DD 00 43 10 0D 00 2E 38 7D 88  0 92 71 B0 7D BB B8 BB BC B9 
 HI HI A6 C7 90 DD 05 43 FF 0D 00 2E 9G 52 87 60 93 91 B0 7A BB B8 BC BD B9 
 HI HI A6 07 90 DD 01 43 05 0D 00 2E 3B 7A 86 60 92 90 A0 77 BB B8 BC BD B9
 HI HI A6 C7 90 DD 09 43 10 0B 00 2E 4E    85 60 93 91 B0 7B BB B8 BB BC B9 
 HI HI A6 07 90 DD 15 43 10 0D 00 2E 57 54 7F 60 92 90 A0 7D BB B8 BB BC B9 
 HI HI A6 C7 90 DD 1A 43 10 0D 00 2E 55 67 75 60 94 91 B0 84 BB B7 BB BC B9 
 HI HI A6 C7 90 DD 1F 43 10 0D 00 2E 7E 2D 71 60 92 90 B0 8F BB B7 BB BC B9 
 HI HI A6 C7 90 DD 05 43 10 0D 00 2E 33 70 7A 60 92 90 9F 7D BA B7 BB BC B9 
 HI HI A6 C7 90 DD 0A 43 1E 25 00 2E 58 2B 8B 60 96 92 B0 65 BA B7 BB BC B9 
 HI HI A6 C7 90 DD 0F 43 10 0D 00 2E 2B 5D 8A 60 94 92 B0 63 BA B7 BB BB B9 
 HI HI A6 C7 90 D0 14 43 10 0D 00 2E 50 48 7B 60 93 91 B0 67 BA B7 BB BB B9 
 HI HI A6 C7 90 DD 1A 43 10 0D 00 2E 33 3D 85 60 93 91 B0 77 BA B6 BA BB B9 

  AS18766C1   5Jun2000
  10:41-10:51(JST)
  Freq.435.795-.788MHz

 HI HI AE C7 90 DD 1B 43 10 0D 00 2E 85 A1 60 54 94 92 B0 88 BA BB BC B9 B9 
 HI HI A6 C7 90 DD 00 43 10 0D 00 2E 55 45 84 61 94 92 B0 9A BA BB BC B9 B9 
 HI HI A6 C7 90 DD 05 43 10 0D 00 2E 75 9F 71 60 93 91 B1 94 BA BB BC B9 B9 
 HI HI A6 C7 81 DD 0B 43 FF 0D  0 2E     5 7D 60 83 91 B0 91 BA BB BC B9 B9 
 HI HI A6 C7 81 DD 10 43 10 0D 00 2E  D 84 7E 60 93 61 B0 93 BA BA BC B9 B9 
 HI HI A6 C7 90 DD 15 43 10 0D 00 2E 83  8 6D 60 93 91 B0 65 B9 BA BC B9 B9 
 HI HI A6 C7 90 DD 1B 43 10 0D 00 2E 2E 73 8D 60 93 91 B0 85 B9 BA BC B9 B9 
 HI HI A6 C7 90 DD 00 43 10 0D 00 2E 7C B3 6C 61 93 91 B0 8B B9 BA BC B8 B9 
 HI HI A6 C7 90 DD 05 43 10 0D 00 2E 3D 86 83 60 93 91 B0 7D B9 BA BC B8 B9 
 HI HI A6 C7 90 DD 0B 43 10 0D 00 2E 60 77 84 6O 93 90 B0 8C B9 BA BC B8 B9 
 HI HI A6 07 90 DD 10 43 10 0D 00 2E B  63 6D 60 93 91 B0 79 B9 BA BB B8 B9 
 HI HI A6 C7 90 DD 15 43 10 0D 00 2E 46 9E 7B 60 94 92 B0 95 B9 BA BB B8 B9 
 HI HI A6 C7 99 DD 1A 43 10 1E 00 2E 6F B8 69 60 92 92 B0  

  
 ------------------------ FO-29の軌道要素 ------------------------------        
 
  ■ 軌道要素1:「jamsat−keps:999」より         
            SB KEPS @ AMSAT  $ORB00155.N
            2Line Orbital Elements 00155.AMSAT

 HR AMSAT ORBITAL ELEMENTS FOR AMATEUR SATELLITES IN NASA FORMAT
 FROM WA5QGD FORT WORTH,TX June 3, 2000
 SEND SUBSCRIBE/UNSUBSCRIBE TO majordomo@amsat.org ONLY
 BID: ORB00155.N

  DECODE 2-LINE ELSETS WITH THE FOLLOWING KEY:
  1 AAAAAU 00  0  0 BBBBB.BBBBBBBB  .CCCCCCCC  00000-0  00000-0 0  DDDZ
  2 AAAAA EEE.EEEE FFF.FFFF GGGGGGG HHH.HHHH III.IIII JJ.JJJJJJJJKKKKKZ
  KEY: A-CATALOGNUM B-EPOCHTIME C-DECAY D-ELSETNUM E-INCLINATION F-RAAN
  G-ECCENTRICITY H-ARGPERIGEE I-MNANOM J-MNMOTION K-ORBITNUM Z-CHECKSUM
  TO ALL RADIO AMATEURS BT

 FO-29
 1 24278U 96046B   00155.28738282 -.00000002  00000-0  37240-4 0  3345
 2 24278  98.5882  64.9673 0350293 263.0402  93.0779 13.52724071187417

 ■ 軌道要素2:「jamsat−keps:1000」より                    
         SB KEPS @ AMSAT  $ORB00155.O
         Orbital Elements  00155.OSCAR

 HR AMSAT ORBITAL ELEMENTS FOR OSCAR SATELLITES
 FROM WA5QGD FORT WORTH,TX June 3, 2000
 SEND SUBSCRIBE/UNSUBSCRIBE TO majordomo@amsat.org ONLY
 BID: ORB00155.O
 TO ALL RADIO AMATEURS BT
 
  Satellite: FO-29
 Catalog number: 24278
 Epoch time:      00155.28738282
 Element set:     334
 Inclination:       98.5882 deg
 RA of node:        64.9673 deg
 Eccentricity:    0.0350293
 Arg of perigee:   263.0402 deg
 Mean anomaly:      93.0779 deg
 Mean motion:   13.52724071 rev/day
 Decay rate:       -2.0e-08 rev/day^2
 Epoch rev:           18741
 Checksum:              312

-------------------  FO-29(JAS-2)のテレメトリに関する情報  ----------------------
 
 2)6月3日(土)のテレメトリの最後の行の変換例です.

  AS18780C1  6Jun2000
  11:26-11:41(JST)
  Freq.435.804-.786MHz
 
 HI HI A6 C7 90 DD 16 43 10 0D 00 2E 50 68 56 60 93 91 B0 65 BA B6 BA BC B8 
  
 テレメトリ  	内   容	    	換算値	単 位  
 3C	磁気センサーZ軸=	57843.1	[nT]
 3D	磁気センサX軸 =	38725.5	[nT]
 4A	太陽電池発生電流=	 1382.4	[mA]
 4B	B充放電電流	=	 -118.4	[mA]
 4C	B端子電圧	=	   15.8	[V]
 4D	B中間端子電圧	=	    7.0	[V]
 5A	バス電圧	    =	   17.3	[V]
 5B	JTA送信電力	=	  766.4	[mW]
 5C 	構体温度1	=	    9.6	[℃]
 5D	構体温度2	=	   11.2	[℃]
 6A	構体温度3	=	   10.0	[℃]
 6B	構体温度4	=	    9.3	[℃]
 6C	Bセル温度	=	   10.4	[℃]

 * OSはWindows 2000,Office 2000 にて計算処理.
 
 ===========================  FO-29(ふじ3号)のQSO情報等 ======================
   
 3)
 ====================================================================================
   4)JARL のホームページに運用予定が記載されていましたのでご紹介します.
       ( http://www.jarl.or.jp/Japanese/3_Fuji/new/uy.htm )

        ■ ふじ3号/FOー29/JAS-2 ■  
   
     *** 運用予定について ***

 ☆☆ 待望のデジトーカ運用を5日間運用開始 ☆☆

  ※  6月08日 〜 6月12日 デジトーカ運用
    6月13日 〜 7月02日  アナログ系運用 

  ※関西ハムフェスティバルに併せて,実施いたします。
  JAS−2ベリカードを希望の方へ
  「受信レポート」と住所,氏名,コールサインを明記のうえ80円切手を貼った返信用封筒を
  下記のところまでお送りください.
            〒170−8073 東京都豊島区巣鴨1−14−5
            (社)日本アマチュア無線連盟 技術研究所技術課
               「JAS−2ベリカード希望」と記入してください。
   「受信レポート」の記入例
    1.日   時
    2.場   所
    3.受信強度
    4.送信内容
    5.使用した機種名
    6.アンテナ
    7.その他(ご意見等)
   注)6.アンテナは「型番」ではなく,形式を記入してくだい。
       例:「何エレの八木アンテナ」,「何段のGPアンテナ」・・・。
     7.ご意見,ご感想等をお書きください。また,受信レポートの書式はA4版の
             用紙に記入してください。

  デジトーカの受信周波数は435.91MHzです。ハンディー機での受信も可能ですので,
  ぜひトライしてください。

-----------------------    FO−20(JAS-1b)道要素   -------------------------
  5)
  ■ 軌道要素1 :出典はFO-29「ふじ3号」に同じ.
  
  FO-20
 1 20480U 90013C   00155.42670712 -.00000005  00000-0  51757-4 0  2300
 2 20480  99.0516 288.4084 0541034  86.4134 279.8648 12.83274509483519
 
  ■ 軌道要素2 :出典はFO−29「ふじ3号」に同じ.
               
  Satellite: FO-20
 Catalog number: 20480
 Epoch time:      00155.42670712
 Element set:     230
 Inclination:       99.0516 deg
 RA of node:       288.4084 deg
 Eccentricity:    0.0541034
 Arg of perigee:    86.4134 deg
 Mean anomaly:     279.8648 deg
 Mean motion:   12.83274509 rev/day
 Decay rate:       -5.0e-08 rev/day^2
 Epoch rev:           48351
 Checksum:              292

 --------------------------------------------------------------------------------
 
         ■ ふじ2号/FO−20/JAS-1b ■      
            
          「ふじ2号」 現況                                                                                  
             
   JAS-1b(ふじ2号)のCWテレメトリ信号に,1997年10月12日12時(JST)の
 日本上空通過時,3桁の数字が繰り返されるはずが3個の長音の繰り返しとなっているという
 異常が発見されました。この不具合は次の通過時からは回復していましたが13日15時20分の
 通過時に再び観測されました。現在はA0の送信が続いています。衛星のアナログ系中継モード
 動作は異常が無く,正常時のテレメトリ内容からは衛星の動作に異常は認められません。従って,
 直ちに衛星のミッションに影響することは無いと予想されますので,当面はアナログ系中継
 モードを継続します。衛星は既に打ち上げてから7年8ヶ月を経ておりますので,今後は監視を
 強化する予定です。アマチュア各位のレポートをお待ちします。
 -------------------------------------------------------------------------------- 
  1997年10月14日 00時35分 確認のテレメトリ音 151 KB (A0) 
  1997年10月14日 11時10分 確認のテレメトリ音 216 KB (異常キーイング) 

  以上 JARLのホ−ムページの http://www.jarl.or.jp/Japanese/3_Fuji/new/fuji.htm

===================== FO-20 ふじ2号 のテレメトリ観測結果 ====================

   6月3日(土)の14:15(JST)のパスの観測結果では以前観測した結果よりも変動のない
 単一周波数でドップラー効果で周波数がずれていくのみの状態に戻っておりました。
                                         
   =============   JAS-2 (ふじ3号)と現在までの情報   ===========
  
  A.電話によるふじ3号の運用情報
      社団法人日本アマチュア連盟によるサービス
           TEL .   03− 3942 − 1000
  B.アマチュア無線FAXサービス
      JARLによるふじ3号の軌道情報(オービットカレンダー)
         FAX No.  03− 3233 −0055
  C.WWWブラウザで情報を簡単に見れる人のためにJAS−2
     ふじ3号の衛星としての運用されるまでの名前)の概要、打ち上げ
     までの状況、運用中における状況を説明したホームページを紹介し
     ておきます.
     社団法人日本アマチュア無線連盟(JARL)のホームページ

          http://www.jarl.or.jp/Japanese/3_Fuji/jasmenu.htm
 
     宇宙開発事業団(NASDA)ホームページ 
          http://www.nasda.go.jp/
         打上げ衛星 :地球観測プラットフォーム技術衛星(ADEOS) 
                       アマチュア衛星3号(JAS-2)
          http://yyy.tksc.nasda.go.jp/Home/Press/Press-j/jas-2_j.html        

  D.JAMSATによる軌道情報の活用
        JAMSATのホームページまたはjamsat−kepsの軌道要素より
      衛星の軌道情報を得る.
     JAMSATホームページ
               URL    http://www.jamsat.or.jp
       上記ホームページでは各地で行われるアマチュア通信衛星に関する
      ミューティングのお知らせや世界のアマチュア衛星に関する情報が
      満載されています.
 ========================================================================  
     JAMSATのメンバーのご協力によりJH6MME(高山 秀造)が
    執筆・編集を担当しております.ご指摘の意見、疑問やこのようにしたら
    というアイデアがありましたら小さなことでもかまいませんので気軽に下
    記アドレスまでご連絡ください.jamsat−newsからjas2
    infoへの転載をJH4PHW局坂井さんに担当して頂いております.  
                  E-mail : jh6mme@jamsat.or.jp : jh4phw@jamsat.or.jp
 ===============================   END  ===============================